Back to catalog

STARLINK-37309

AliveCommunicationsVLEO
NORAD 69364·PAYLOAD·🇺🇸 United States

Launched Jun 4, 2026 from Cape Canaveral Space Force Station

Loading…

Next Passes (next 24 hours)

TLE

FreshSource: CelesTrak SupGP

Epoch: Sep 14, 2026, 15:07 UTC

1 69364C 26123M   26257.63034722  .00071310  00000+0  21061-2 0  2571
2 69364  53.1586 169.4711 0001252  87.1412 305.2790 15.34366835    11

Track STARLINK-37309 in real time with AllMySat

Download on the App Store